TimeCDT,TemperatureF,Dew PointF,Humidity,Sea Level PressureIn,VisibilityMPH,Wind Direction,Wind SpeedMPH,Gust SpeedMPH,PrecipitationIn,Events,Conditions,WindDirDegrees,DateUTC
12:53 AM,33.1,30.0,89,29.97,10.0,Calm,Calm,-,N/A,,Clear,0,2013-10-08 05:53:00
1:53 AM,32.0,30.0,92,29.96,10.0,Calm,Calm,-,N/A,,Clear,0,2013-10-08 06:53:00
2:53 AM,30.9,28.9,92,29.96,10.0,Calm,Calm,-,N/A,,Clear,0,2013-10-08 07:53:00
3:53 AM,30.9,28.9,92,29.94,10.0,Calm,Calm,-,N/A,,Clear,0,2013-10-08 08:53:00
4:53 AM,30.9,28.9,92,29.94,10.0,Calm,Calm,-,N/A,,Clear,0,2013-10-08 09:53:00
5:53 AM,30.9,28.9,92,29.93,10.0,Calm,Calm,-,N/A,,Clear,0,2013-10-08 10:53:00
6:53 AM,30.9,28.9,92,29.92,10.0,Calm,Calm,-,N/A,,Clear,0,2013-10-08 11:53:00
7:53 AM,36.0,32.0,86,29.91,10.0,SE,3.5,-,N/A,,Clear,130,2013-10-08 12:53:00
8:53 AM,50.0,42.1,74,29.87,10.0,SSE,9.2,-,N/A,,Clear,150,2013-10-08 13:53:00
9:53 AM,57.9,43.0,58,29.84,10.0,SSE,13.8,18.4,N/A,,Clear,150,2013-10-08 14:53:00
10:53 AM,62.1,43.0,50,29.81,10.0,SSE,9.2,-,N/A,,Clear,160,2013-10-08 15:53:00
11:53 AM,66.9,43.0,42,29.79,10.0,South,12.7,23.0,N/A,,Clear,180,2013-10-08 16:53:00
12:53 PM,70.0,44.1,39,29.78,10.0,South,11.5,25.3,N/A,,Clear,180,2013-10-08 17:53:00
1:53 PM,73.9,46.0,37,29.75,10.0,South,8.1,18.4,N/A,,Clear,190,2013-10-08 18:53:00
2:53 PM,75.0,45.0,34,29.74,10.0,South,15.0,24.2,N/A,,Clear,170,2013-10-08 19:53:00
3:53 PM,75.0,45.0,34,29.74,10.0,South,13.8,24.2,N/A,,Clear,180,2013-10-08 20:53:00
4:53 PM,73.0,45.0,37,29.75,10.0,South,12.7,21.9,N/A,,Clear,190,2013-10-08 21:53:00
5:53 PM,71.1,46.0,41,29.76,10.0,Variable,6.9,16.1,N/A,,Clear,0,2013-10-08 22:53:00
6:53 PM,68.0,46.0,45,29.78,10.0,South,9.2,-,N/A,,Clear,170,2013-10-08 23:53:00
7:53 PM,66.9,46.0,47,29.79,10.0,Variable,6.9,-,N/A,,Clear,0,2013-10-09 00:53:00
8:53 PM,66.0,45.0,47,29.80,10.0,South,9.2,-,N/A,,Clear,170,2013-10-09 01:53:00
9:53 PM,63.0,45.0,52,29.81,10.0,South,4.6,-,N/A,,Clear,180,2013-10-09 02:53:00
10:53 PM,60.1,44.1,55,29.82,10.0,Calm,Calm,-,N/A,,Clear,0,2013-10-09 03:53:00
11:53 PM,59.0,44.1,58,29.83,10.0,South,3.5,-,N/A,,Clear,180,2013-10-09 04:53:00